Date String (YYYY-MM-DD hh:mm:ss) UTC,Instrument flags,absolute air pressure of the measurement (hPa),sample flow rate (lpm),inlet stack bypass flow (lpm),air temperature of the measurement (°C),ambient temperature measured by the external sensor (°C),aerosol sample conditioner tube jacket temperature (°C),OPC LED temperature (°C),internal box temperature (°C),relative humidity of the measurement (%),span deviation,mass concentration of particles derived from Lorenz-Mie calculation of OPC scattering (μg/m³),mass concentration of particles derived from Lorenz-Mie calculation of OPC scattering (μg/m³),mass concentration of particles derived from Lorenz-Mie calculation of OPC scattering (μg/m³)
DateTimeUTC,F1_M11,P_M11,Q1_M11,Q2_M11,T1_M11,T2_M11,T3_M11,T4_M11,T5_M11,U1_M11,ZSPAN_M11,X2_M11,X0_M11,X1_M11
2024-01-30 04:00:00,SystemResetWarning,0838.0,5.00,000.00,025.5,024.2,000.0,033.9,026.9,14.7,0000.0,0002.61,0007.74,0001.89
2024-01-30 04:01:00,SystemResetWarning,0838.0,5.00,000.00,025.5,024.2,000.0,033.9,026.9,14.7,0000.0,0002.62,0007.90,0001.87
2024-01-30 04:02:00,SystemResetWarning,0838.0,5.00,000.00,025.5,024.2,000.0,033.9,026.8,14.7,0000.0,0002.59,0008.21,0001.86
2024-01-30 04:03:00,SystemResetWarning,0837.9,4.99,000.00,025.5,024.2,000.0,033.8,026.9,14.7,0000.0,0002.58,0008.15,0001.85
2024-01-30 04:04:00,SystemResetWarning,0837.8,4.99,000.00,025.5,024.2,000.0,033.8,026.8,14.8,0000.0,0002.61,0007.56,0001.84
2024-01-30 04:05:00,SystemResetWarning,0837.8,5.00,000.00,025.5,024.2,000.0,033.8,026.9,14.8,0000.0,0002.64,0007.50,0001.83
2024-01-30 04:06:00,SystemResetWarning,0837.8,5.00,000.00,025.5,024.1,000.0,033.8,026.8,14.8,0000.0,0002.63,0007.60,0001.81
2024-01-30 04:07:00,SystemResetWarning,0837.8,5.00,000.00,025.5,024.1,000.0,033.8,026.8,14.8,0000.0,0002.61,0008.13,0001.80
2024-01-30 04:08:00,SystemResetWarning,0837.8,5.01,000.00,025.4,024.1,000.0,033.8,026.8,14.8,0000.0,0002.62,0008.13,0001.78
2024-01-30 04:09:00,SystemResetWarning,0837.8,5.01,000.00,025.4,024.1,000.0,033.8,026.8,14.8,0000.0,0002.55,0008.18,0001.78
2024-01-30 04:10:00,SystemResetWarning,0837.8,5.00,000.00,025.4,024.1,000.0,033.8,026.8,14.8,0000.0,0002.48,0008.13,0001.77
2024-01-30 04:11:00,SystemResetWarning,0837.7,4.99,000.00,025.4,024.1,000.0,033.8,026.8,14.8,0000.0,0002.42,0008.40,0001.75
2024-01-30 04:12:00,SystemResetWarning,0837.7,5.00,000.00,025.4,024.1,000.0,033.8,026.8,14.8,0000.0,0002.36,0008.20,0001.74
2024-01-30 04:13:00,SystemResetWarning,0837.8,5.00,000.00,025.4,024.1,000.0,033.8,026.8,14.8,0000.0,0002.38,0007.60,0001.73
2024-01-30 04:14:00,SystemResetWarning,0837.8,4.99,000.00,025.4,024.1,000.0,033.8,026.8,14.8,0000.0,0002.42,0007.72,0001.72
2024-01-30 04:15:00,SystemResetWarning,0837.8,4.99,000.00,025.4,024.1,000.0,033.7,026.8,14.8,0000.0,0002.42,0007.87,0001.71
2024-01-30 04:16:00,SystemResetWarning,0837.8,5.00,000.00,025.4,024.1,000.0,033.7,026.8,14.9,0000.0,0002.35,0007.59,0001.70
2024-01-30 04:17:00,SystemResetWarning,0837.8,5.00,000.00,025.4,024.0,000.0,033.7,026.7,14.9,0000.0,0002.33,0007.17,0001.69
2024-01-30 04:18:00,SystemResetWarning,0837.8,5.00,000.00,025.4,024.0,000.0,033.7,026.7,14.9,0000.0,0002.29,0006.03,0001.68
2024-01-30 04:19:00,SystemResetWarning,0837.7,5.00,000.00,025.4,024.0,000.0,033.7,026.7,14.9,0000.0,0002.30,0006.61,0001.68
2024-01-30 04:20:00,SystemResetWarning,0837.7,4.99,000.00,025.3,024.0,000.0,033.7,026.7,14.9,0000.0,0002.28,0006.37,0001.67
2024-01-30 04:21:00,SystemResetWarning,0837.8,4.99,000.00,025.3,024.0,000.0,033.7,026.7,14.9,0000.0,0002.29,0006.03,0001.68
2024-01-30 04:22:00,SystemResetWarning,0837.7,4.99,000.00,025.3,024.0,000.0,033.7,026.7,14.9,0000.0,0002.30,0005.22,0001.70
2024-01-30 04:23:00,SystemResetWarning,0837.7,5.01,000.00,025.3,024.0,000.0,033.7,026.7,14.9,0000.0,0002.28,0005.65,0001.71
2024-01-30 04:24:00,SystemResetWarning,0837.7,5.01,000.00,025.3,024.0,000.0,033.7,026.7,14.9,0000.0,0002.29,0005.74,0001.73
2024-01-30 04:25:00,SystemResetWarning,0837.7,5.00,000.00,025.3,024.0,000.0,033.7,026.7,14.9,0000.0,0002.24,0007.30,0001.73
2024-01-30 04:26:00,SystemResetWarning,0837.7,4.99,000.00,025.3,024.0,000.0,033.7,026.7,14.9,0000.0,0002.26,0007.36,0001.75
2024-01-30 04:27:00,SystemResetWarning,0837.7,5.00,000.00,025.3,024.0,000.0,033.7,026.7,14.9,0000.0,0002.25,0007.32,0001.76
2024-01-30 04:28:00,SystemResetWarning,0837.7,4.99,000.00,025.3,024.0,000.0,033.6,026.7,14.9,0000.0,0002.30,0007.43,0001.77
2024-01-30 04:29:00,SystemResetWarning,0837.7,5.00,000.00,025.3,024.0,000.0,033.6,026.6,14.9,0000.0,0002.36,0007.48,0001.79
2024-01-30 04:30:00,SystemResetWarning,0837.7,5.01,000.00,025.3,023.9,000.0,033.6,026.6,14.9,0000.0,0002.38,0007.49,0001.81
2024-01-30 04:31:00,SystemResetWarning,0837.6,5.01,000.00,025.3,023.9,000.0,033.6,026.6,14.9,0000.0,0002.46,0008.51,0001.83
2024-01-30 04:32:00,SystemResetWarning,0837.6,5.00,000.00,025.3,023.9,000.0,033.6,026.6,14.9,0000.0,0002.46,0008.50,0001.84
2024-01-30 04:33:00,SystemResetWarning,0837.6,5.00,000.00,025.3,023.9,000.0,033.6,026.6,14.9,0000.0,0002.49,0008.53,0001.84
2024-01-30 04:34:00,SystemResetWarning,0837.6,5.01,000.00,025.2,023.9,000.0,033.6,026.6,14.9,0000.0,0002.60,0008.85,0001.87
2024-01-30 04:35:00,SystemResetWarning,0837.6,5.01,000.00,025.2,023.9,000.0,033.6,026.6,14.9,0000.0,0002.70,0010.05,0001.88
2024-01-30 04:36:00,SystemResetWarning,0837.6,5.00,000.00,025.2,023.9,000.0,033.6,026.6,14.9,0000.0,0002.74,0009.55,0001.89
2024-01-30 04:37:00,SystemResetWarning,0837.6,5.00,000.00,025.2,023.9,000.0,033.6,026.6,14.9,0000.0,0002.73,0009.20,0001.90
2024-01-30 04:38:00,SystemResetWarning,0837.6,5.00,000.00,025.2,023.9,000.0,033.6,026.6,14.9,0000.0,0002.79,0009.54,0001.91
2024-01-30 04:39:00,SystemResetWarning,0837.6,5.01,000.00,025.2,023.9,000.0,033.6,026.6,14.9,0000.0,0002.82,0009.76,0001.93
2024-01-30 04:40:00,SystemResetWarning,0837.6,5.00,000.00,025.2,023.9,000.0,033.6,026.6,15.0,0000.0,0002.81,0009.78,0001.94
2024-01-30 04:41:00,SystemResetWarning,0837.6,5.00,000.00,025.2,023.9,000.0,033.5,026.6,15.0,0000.0,0002.84,0009.36,0001.95
2024-01-30 04:42:00,SystemResetWarning,0837.5,5.00,000.00,025.2,023.9,000.0,033.5,026.6,15.0,0000.0,0002.77,0008.30,0001.95
2024-01-30 04:43:00,SystemResetWarning,0837.6,5.00,000.00,025.2,023.9,000.0,033.5,026.6,15.0,0000.0,0002.82,0008.38,0001.98
2024-01-30 04:44:00,SystemResetWarning,0837.5,5.00,000.00,025.2,023.8,000.0,033.5,026.6,15.0,0000.0,0002.83,0008.42,0001.99
2024-01-30 04:45:00,SystemResetWarning,0837.6,5.00,000.00,025.2,023.8,000.0,033.5,026.5,15.0,0000.0,0002.77,0007.83,0001.99
2024-01-30 04:46:00,SystemResetWarning,0837.5,5.00,000.00,025.1,023.8,000.0,033.5,026.5,15.0,0000.0,0002.70,0005.88,0001.99
2024-01-30 04:47:00,SystemResetWarning,0837.5,5.00,000.00,025.1,023.8,000.0,033.5,026.5,15.0,0000.0,0002.66,0005.19,0001.99
2024-01-30 04:48:00,SystemResetWarning,0837.5,5.00,000.00,025.1,023.8,000.0,033.5,026.5,15.0,0000.0,0002.66,0005.25,0002.00
2024-01-30 04:49:00,SystemResetWarning,0837.5,5.00,000.00,025.1,023.8,000.0,033.5,026.5,15.1,0000.0,0002.65,0005.29,0002.00
2024-01-30 04:50:00,SystemResetWarning,0837.5,5.00,000.00,025.1,023.8,000.0,033.5,026.5,15.1,0000.0,0002.63,0005.78,0002.01
2024-01-30 04:51:00,SystemResetWarning,0837.6,5.00,000.00,025.1,023.8,000.0,033.5,026.5,15.1,0000.0,0002.62,0006.13,0002.02
2024-01-30 04:52:00,SystemResetWarning,0837.5,5.00,000.00,025.1,023.8,000.0,033.4,026.5,15.1,0000.0,0002.61,0006.20,0002.02
2024-01-30 04:53:00,SystemResetWarning,0837.5,5.00,000.00,025.1,023.8,000.0,033.4,026.5,15.1,0000.0,0002.64,0006.46,0002.03
2024-01-30 04:54:00,SystemResetWarning,0837.5,5.01,000.00,025.1,023.8,000.0,033.4,026.4,15.1,0000.0,0002.63,0006.41,0002.02
2024-01-30 04:55:00,SystemResetWarning,0837.5,5.00,000.00,025.1,023.7,000.0,033.4,026.4,15.1,0000.0,0002.67,0006.76,0002.02
2024-01-30 04:56:00,SystemResetWarning,0837.5,5.00,000.00,025.1,023.7,000.0,033.4,026.4,15.2,0000.0,0002.69,0007.21,0002.02
2024-01-30 04:57:00,SystemResetWarning,0837.5,5.00,000.00,025.1,023.7,000.0,033.4,026.4,15.2,0000.0,0002.70,0007.30,0002.04
2024-01-30 04:58:00,SystemResetWarning,0837.5,5.00,000.00,025.0,023.7,000.0,033.4,026.4,15.2,0000.0,0002.69,0007.26,0002.05
2024-01-30 04:59:00,SystemResetWarning,0837.5,5.00,000.00,025.0,023.7,000.0,033.4,026.4,15.2,0000.0,0002.69,0007.44,0002.05
